This demonstration page uses our WeatherBlox Daily Observations layout. Learn more.

39.29038, -76.61219

Hourly Observations for July 8, 2019

Temp ( °F °C ) Dew Point ( °F °C ) Humidity (%) Winds ( mph kmh ) Pressure ( in mb ) Visibility ( mi km ) Precip ( " mm )
12:54 am 00:54 undefined 77 25 71 21.7 82 82 undefined N/A 29.88 1012 N/A 0 0
1:54 am 01:54 undefined 77 25 73 22.8 88 88 undefined N/A 29.88 1012 N/A 0.01 0.254
2:54 am 02:54 undefined 75 23.9 72 22.2 90 90 undefined N/A 29.88 1012 N/A 0.09 2.286
3:54 am 03:54 undefined 75 23.9 72 22.2 90 90 undefined N/A 29.85 1011 N/A 0.24 6.096
4:54 am 04:54 undefined 74 23.3 72 22.2 94 94 undefined N/A 29.85 1011 N/A 0.01 0.254
5:54 am 05:54 undefined 75 23.9 72 22.2 90 90 undefined N/A 29.88 1012 N/A 0 0
6:54 am 06:54 undefined 75 23.9 72 22.2 90 90 undefined N/A 29.85 1011 N/A 0 0
7:54 am 07:54 undefined 75 23.9 72 22.2 90 90 undefined N/A 29.85 1011 N/A 0.02 0.508
8:54 am 08:54 undefined 74 23.3 72 22.2 94 94 undefined N/A 29.88 1012 N/A 0.1 2.54
9:54 am 09:54 undefined 73 22.8 71 21.7 94 94 undefined N/A 29.88 1012 N/A 0.18 4.572
10:54 am 10:54 undefined 73 22.8 70 21.1 90 90 undefined N/A 29.91 1013 N/A 0.09 2.286
11:54 am 11:54 undefined 73 22.8 69 20.6 87 87 undefined N/A 29.94 1014 N/A 0 0
12:54 pm 12:54 undefined 74 23.3 69 20.6 85 85 undefined N/A 29.94 1014 N/A 0 0
1:54 pm 13:54 undefined 73 22.8 68 20 84 84 undefined N/A 29.94 1014 N/A 0.03 0.762
2:54 pm 14:54 undefined 77 25 67 19.4 71 71 undefined N/A 29.97 1015 N/A 0 0
3:54 pm 15:54 undefined 80 26.7 64 17.8 58 58 undefined N/A 29.94 1014 N/A 0 0
4:54 pm 16:54 undefined 77 25 63 17.2 62 62 undefined N/A 29.94 1014 N/A 0 0
5:54 pm 17:54 undefined 78 25.6 65 18.3 64 64 undefined N/A 29.94 1014 N/A 0 0
6:54 pm 18:54 undefined 77 25 63 17.2 62 62 undefined N/A 29.94 1014 N/A 0 0
7:54 pm 19:54 undefined 77 25 63 17.2 62 62 undefined N/A 29.97 1015 N/A 0 0
8:54 pm 20:54 undefined 75 23.9 63 17.2 66 66 undefined N/A 30 1016 N/A 0 0
9:54 pm 21:54 undefined 74 23.3 63 17.2 69 69 undefined N/A 30 1016 N/A 0 0
10:54 pm 22:54 undefined 74 23.3 62 16.7 67 67 undefined N/A 30 1016 N/A 0 0
11:54 pm 23:54 undefined 74 23.3 63 17.2 69 69 undefined N/A 30 1016 N/A 0 0

Powered by AerisWeather